Location: Unspecified
(0.0000°N, 0.0000°E)
Time: 12:17:55
(UTC+00:00)

SL-12 DEB - Pass Details

Date: 07 May 2025
Orbit: 905 x 18020 km, 65.1° (Epoch: 09 July)

Event Time Altitude Azimuth Distance (km) Brightness Sun altitude
Rises 15:30:21 0° 338° (NNW) 18,383 ? 34.7°
Reaches altitude 10° 16:15:47 10° 356° (N) 21,393 ? 24.0°
Maximum altitude 18:47:38 53° 69° (ENE) 10,336 ? -12.2°
Enters shadow 19:16:09 14° 133° (SE) 7,129 ? -19.0°
